Regional Weather Roundup
Issued by NWS

Home | Current Version | Previous Version | Text Only | Print | Product List | Glossary Off
Versions: 1 2 3 4 5 6 7 8 9 10 11 12 13 14 15 16 17 18 19 20 21 22 23 24 25 26 27 28 29 30 31 32 33 34 35 36 37 38 39 40 41 42 43 44 45 46 47 48 49 50

000
ASUS43 KOAX 081902
RWRNE

WEATHER ROUNDUP FOR NEBRASKA
NATIONAL WEATHER SERVICE OMAHA NE
100 PM CST MON FEB 08 2016

NOTES: SATELLITE DATA IS BEING USED TO AUGMENT CLOUD COVER ABOVE
       12000 FEET.
       "FAIR" INDICATES FEW OR NO CLOUDS BELOW 12,000 FEET WITH NO
       SIGNIFICANT WEATHER AND/OR OBSTRUCTIONS TO VISIBILITY.

  * THESE STATIONS DO NOT REPORT WEATHER SUCH AS RAIN...SNOW OR FOG.

NEZ001>004-019>022-054>056-082000-
NEBRASKA PANHANDLE

CITY           SKY/WX    TMP DP  RH WIND       PRES   REMARKS
SCOTTSBLUFF    CLOUDY    38  22  52 NW13      30.36F WCI  30
ALLIANCE       CLOUDY    33  16  49 NW16      30.32F WCI  23
CHADRON        CLOUDY    38  13  35 NW23G30   30.35F WCI  27
SIDNEY         MOSUNNY   37  22  54 NW14      30.34F WCI  28
$$

NEZ057>060-069>072-079>082-082000-
SOUTHWEST NEBRASKA

CITY           SKY/WX    TMP DP  RH WIND       PRES   REMARKS
NORTH PLATTE   CLOUDY    35  15  44 NW22G38   30.29F WCI  23
IMPERIAL       CLOUDY    35  16  45 NW17      30.34F WCI  25
MCCOOK         CLOUDY    35  17  47 NW25G32   30.32F WCI  23
$$

NEZ005>010-023>029-035>040-094-082000-
NORTH CENTRAL NEBRASKA

CITY           SKY/WX    TMP DP  RH WIND       PRES   REMARKS
VALENTINE      MOSUNNY   31  16  54 NW17G31   30.28F WCI  19
BROKEN BOW     SUNNY     34  14  43 NW23G43   30.22F WCI  22
ORD            SUNNY     35  17  47 NW31G44   30.18F WCI  22
$$

NEZ041-046>049-061>064-073>077-083>087-082000-
SOUTH CENTRAL NEBRASKA

CITY           SKY/WX    TMP DP  RH WIND       PRES   REMARKS
GRAND ISLAND   SUNNY     33  18  53 NW28G38   30.18F WCI  20
HASTINGS       SUNNY     34  19  54 NW29      30.19F WCI  20
$$

NEZ011>018-030>034-042>045-082000-
NORTHEAST NEBRASKA

CITY           SKY/WX    TMP DP  RH WIND       PRES   REMARKS
NORFOLK        SUNNY     31  18  58 NW29G38   30.11F WCI  16
COLUMBUS *     SUNNY     30  14  51 NW28G36   30.13F WCI  16
TEKAMAH        CLOUDY    31  18  58 NW30G40   30.11F WCI  16
$$

NEZ050>053-065>068-078-088>093-082000-
SOUTHEAST NEBRASKA

CITY           SKY/WX    TMP DP  RH WIND       PRES   REMARKS
LINCOLN        MOSUNNY   32  19  58 NW22G37   30.14F WCI  19
OMAHA EPPLEY   CLOUDY    27  17  66 N23G36    30.09F WCI  12
FALLS CITY     CLOUDY    33  16  49 NW33G52   30.08F WCI  18
$$

NEZ044-045-051>053-067-082000-
OMAHA AREA

CITY           SKY/WX    TMP DP  RH WIND       PRES   REMARKS
OMAHA EPPLEY   CLOUDY    27  17  66 N23G36    30.09F WCI  12
OFFUTT AFB     CLOUDY    28  16  59 NW30G36   30.08F WCI  13
$$



USA.gov is the U.S. government's official web portal to all federal, state and local government web resources and services.